Time,TemperatureF,DewpointF,PressureIn,WindDirection,WindDirectionDegrees,WindSpeedMPH,WindSpeedGustMPH,Humidity,HourlyPrecipIn,Conditions,Clouds,dailyrainin,SoftwareType,DateUTC
2013-02-14 00:00:00,36.8,33.9,29.82,SE,140,0.0,1.0,89,0.00,,,0.03,WeatherCatV1.00B22,2013-02-14 05:00:00,
2013-02-14 00:05:00,36.7,33.8,29.83,NNE,20,0.0,1.0,89,0.00,,,0.00,WeatherCatV1.00B22,2013-02-14 05:05:00,
2013-02-14 00:10:00,36.6,33.7,29.83,WNW,294,0.0,2.0,89,0.00,,,0.00,WeatherCatV1.00B22,2013-02-14 05:10:00,
2013-02-14 00:15:00,36.6,33.7,29.83,WNW,294,0.0,0.0,89,0.00,,,0.00,WeatherCatV1.00B22,2013-02-14 05:15:00,
2013-02-14 00:20:00,36.5,33.6,29.83,WNW,294,0.0,0.0,89,0.00,,,0.00,WeatherCatV1.00B22,2013-02-14 05:20:00,
2013-02-14 00:25:00,36.5,33.6,29.83,North,5,0.0,1.0,89,0.00,,,0.00,WeatherCatV1.00B22,2013-02-14 05:25:00,
2013-02-14 00:30:00,36.4,33.5,29.83,North,5,0.0,0.0,89,0.00,,,0.00,WeatherCatV1.00B22,2013-02-14 05:30:00,
2013-02-14 00:35:00,36.3,33.4,29.83,WNW,292,0.0,4.0,89,0.00,,,0.00,WeatherCatV1.00B22,2013-02-14 05:35:00,
2013-02-14 00:40:00,36.2,33.3,29.83,WNW,292,0.0,0.0,89,0.00,,,0.00,WeatherCatV1.00B22,2013-02-14 05:40:00,
2013-02-14 00:45:00,36.1,33.2,29.83,WNW,292,0.0,0.0,89,0.00,,,0.00,WeatherCatV1.00B22,2013-02-14 05:45:00,
2013-02-14 00:50:00,36.0,33.1,29.83,NE,36,0.0,1.0,89,0.00,,,0.00,WeatherCatV1.00B22,2013-02-14 05:50:00,
2013-02-14 00:55:00,35.9,33.0,29.83,West,264,0.0,0.0,89,0.00,,,0.00,WeatherCatV1.00B22,2013-02-14 05:55:00,
2013-02-14 01:00:00,35.9,33.0,29.83,West,264,0.0,0.0,89,0.00,,,0.00,WeatherCatV1.00B22,2013-02-14 06:00:00,
2013-02-14 01:05:00,35.8,32.9,29.83,East,98,0.0,2.0,89,0.00,,,0.00,WeatherCatV1.00B22,2013-02-14 06:05:00,
2013-02-14 01:10:00,35.8,32.9,29.83,SE,130,0.0,0.0,89,0.00,,,0.00,WeatherCatV1.00B22,2013-02-14 06:10:00,
2013-02-14 01:15:00,35.7,32.8,29.83,SE,130,0.0,0.0,89,0.00,,,0.00,WeatherCatV1.00B22,2013-02-14 06:15:00,
2013-02-14 01:20:00,35.6,32.7,29.83,SE,130,0.0,0.0,89,0.00,,,0.00,WeatherCatV1.00B22,2013-02-14 06:20:00,
2013-02-14 01:25:00,35.5,32.6,29.83,SSE,147,0.0,1.0,89,0.00,,,0.00,WeatherCatV1.00B22,2013-02-14 06:25:00,
2013-02-14 01:30:00,35.5,32.6,29.83,SSE,147,0.0,0.0,89,0.00,,,0.00,WeatherCatV1.00B22,2013-02-14 06:30:00,
2013-02-14 01:35:00,35.4,32.5,29.83,SSE,147,0.0,1.0,89,0.00,,,0.00,WeatherCatV1.00B22,2013-02-14 06:35:00,
2013-02-14 01:40:00,35.3,32.7,29.83,SSW,204,0.0,0.0,90,0.00,,,0.00,WeatherCatV1.00B22,2013-02-14 06:40:00,
2013-02-14 01:45:00,35.2,32.6,29.83,SSW,204,0.0,0.0,90,0.00,,,0.00,WeatherCatV1.00B22,2013-02-14 06:45:00,
2013-02-14 01:50:00,35.2,32.6,29.83,SSW,204,0.0,0.0,90,0.00,,,0.00,WeatherCatV1.00B22,2013-02-14 06:50:00,
2013-02-14 01:55:00,35.1,32.5,29.83,SSW,204,0.0,0.0,90,0.00,,,0.00,WeatherCatV1.00B22,2013-02-14 06:55:00,
2013-02-14 02:00:00,35.1,32.5,29.83,SSW,204,0.0,1.0,90,0.00,,,0.00,WeatherCatV1.00B22,2013-02-14 07:00:00,
2013-02-14 02:05:00,35.0,32.4,29.83,SSW,204,0.0,0.0,90,0.00,,,0.00,WeatherCatV1.00B22,2013-02-14 07:05:00,
2013-02-14 02:10:00,34.8,32.2,29.83,SSW,204,0.0,0.0,90,0.00,,,0.00,WeatherCatV1.00B22,2013-02-14 07:10:00,
2013-02-14 02:15:00,34.7,32.1,29.83,SSW,204,1.0,2.0,90,0.00,,,0.00,WeatherCatV1.00B22,2013-02-14 07:15:00,
2013-02-14 02:20:00,34.6,32.2,29.83,SSW,204,0.0,0.0,91,0.00,,,0.00,WeatherCatV1.00B22,2013-02-14 07:20:00,
2013-02-14 02:25:00,34.5,32.1,29.83,SSW,204,0.0,0.0,91,0.00,,,0.00,WeatherCatV1.00B22,2013-02-14 07:25:00,
2013-02-14 02:30:00,34.5,32.1,29.83,WNW,288,1.0,2.0,91,0.00,,,0.00,WeatherCatV1.00B22,2013-02-14 07:30:00,
2013-02-14 02:35:00,34.4,32.0,29.83,WNW,288,2.0,2.0,91,0.00,,,0.00,WeatherCatV1.00B22,2013-02-14 07:35:00,
2013-02-14 02:40:00,34.4,32.0,29.83,WSW,253,0.0,1.0,91,0.00,,,0.00,WeatherCatV1.00B22,2013-02-14 07:40:00,
2013-02-14 02:45:00,34.3,32.0,29.83,WSW,253,0.0,0.0,91,0.00,,,0.00,WeatherCatV1.00B22,2013-02-14 07:45:00,
2013-02-14 02:50:00,34.3,32.2,29.83,WSW,253,0.0,0.0,92,0.00,,,0.00,WeatherCatV1.00B22,2013-02-14 07:50:00,
2013-02-14 02:55:00,34.3,32.2,29.83,WSW,253,0.0,0.0,92,0.00,,,0.00,WeatherCatV1.00B22,2013-02-14 07:55:00,
2013-02-14 03:00:00,34.3,32.2,29.83,WSW,253,0.0,0.0,92,0.00,,,0.00,WeatherCatV1.00B22,2013-02-14 08:00:00,
2013-02-14 03:05:00,34.3,32.2,29.83,WSW,253,0.0,0.0,92,0.00,,,0.00,WeatherCatV1.00B22,2013-02-14 08:05:00,
2013-02-14 03:10:00,34.3,32.2,29.83,WSW,253,2.0,2.0,92,0.00,,,0.00,WeatherCatV1.00B22,2013-02-14 08:10:00,
2013-02-14 03:13:00,34.3,32.2,29.83,WSW,253,0.0,0.0,92,0.00,,,0.00,WeatherCatV1.00B22,2013-02-14 08:13:00,
2013-02-14 03:18:00,34.2,31.9,29.84,WNW,286,0.0,1.0,91,0.00,,,0.00,WeatherCatV1.00B22,2013-02-14 08:18:00,
2013-02-14 03:23:00,34.3,32.0,29.84,WNW,286,0.0,0.0,91,0.00,,,0.00,WeatherCatV1.00B22,2013-02-14 08:23:00,
2013-02-14 03:28:00,34.2,31.9,29.84,WNW,286,0.0,0.0,91,0.00,,,0.00,WeatherCatV1.00B22,2013-02-14 08:28:00,
2013-02-14 03:33:00,34.2,31.9,29.84,WNW,286,0.0,0.0,91,0.00,,,0.00,WeatherCatV1.00B22,2013-02-14 08:33:00,
2013-02-14 03:38:00,34.2,31.9,29.84,WNW,286,0.0,0.0,91,0.00,,,0.00,WeatherCatV1.00B22,2013-02-14 08:38:00,
2013-02-14 03:43:00,34.1,31.8,29.84,WNW,286,0.0,0.0,91,0.00,,,0.00,WeatherCatV1.00B22,2013-02-14 08:43:00,
2013-02-14 03:48:00,34.0,31.7,29.84,WNW,286,0.0,0.0,91,0.00,,,0.00,WeatherCatV1.00B22,2013-02-14 08:48:00,
2013-02-14 03:53:00,33.9,31.6,29.84,WNW,286,0.0,0.0,91,0.00,,,0.00,WeatherCatV1.00B22,2013-02-14 08:53:00,
2013-02-14 03:58:00,33.9,31.8,29.84,WNW,286,0.0,0.0,92,0.00,,,0.00,WeatherCatV1.00B22,2013-02-14 08:58:00,
2013-02-14 04:03:00,33.8,31.7,29.84,WNW,286,0.0,0.0,92,0.00,,,0.00,WeatherCatV1.00B22,2013-02-14 09:03:00,
2013-02-14 04:08:00,33.7,31.6,29.84,WNW,286,0.0,0.0,92,0.00,,,0.00,WeatherCatV1.00B22,2013-02-14 09:08:00,
2013-02-14 04:13:00,33.7,31.6,29.84,WNW,286,0.0,0.0,92,0.00,,,0.00,WeatherCatV1.00B22,2013-02-14 09:13:00,
2013-02-14 04:18:00,33.6,31.5,29.84,WNW,286,0.0,0.0,92,0.00,,,0.00,WeatherCatV1.00B22,2013-02-14 09:18:00,
2013-02-14 04:23:00,33.6,31.5,29.84,WNW,286,0.0,0.0,92,0.00,,,0.00,WeatherCatV1.00B22,2013-02-14 09:23:00,
2013-02-14 04:28:00,33.5,31.4,29.85,WNW,286,0.0,0.0,92,0.00,,,0.00,WeatherCatV1.00B22,2013-02-14 09:28:00,
2013-02-14 04:33:00,33.5,31.4,29.85,WNW,286,0.0,0.0,92,0.00,,,0.00,WeatherCatV1.00B22,2013-02-14 09:33:00,
2013-02-14 04:38:00,33.5,31.4,29.85,WNW,286,0.0,0.0,92,0.00,,,0.00,WeatherCatV1.00B22,2013-02-14 09:38:00,
2013-02-14 04:43:00,33.5,31.4,29.85,WNW,286,0.0,0.0,92,0.00,,,0.00,WeatherCatV1.00B22,2013-02-14 09:43:00,
2013-02-14 04:48:00,33.4,31.3,29.85,WNW,286,0.0,0.0,92,0.00,,,0.00,WeatherCatV1.00B22,2013-02-14 09:48:00,
2013-02-14 04:53:00,33.3,31.2,29.85,WNW,286,0.0,0.0,92,0.00,,,0.00,WeatherCatV1.00B22,2013-02-14 09:53:00,
2013-02-14 04:58:00,33.2,31.1,29.85,WNW,286,0.0,0.0,92,0.00,,,0.00,WeatherCatV1.00B22,2013-02-14 09:58:00,
2013-02-14 05:03:00,33.2,31.1,29.85,WNW,286,0.0,0.0,92,0.00,,,0.00,WeatherCatV1.00B22,2013-02-14 10:03:00,
2013-02-14 05:08:00,33.2,31.1,29.85,WNW,286,0.0,0.0,92,0.00,,,0.00,WeatherCatV1.00B22,2013-02-14 10:08:00,
2013-02-14 05:13:00,33.0,30.9,29.85,WNW,286,0.0,0.0,92,0.00,,,0.00,WeatherCatV1.00B22,2013-02-14 10:13:00,
2013-02-14 05:18:00,33.0,30.9,29.85,WNW,286,1.0,1.0,92,0.00,,,0.00,WeatherCatV1.00B22,2013-02-14 10:18:00,
2013-02-14 05:23:00,33.0,30.9,29.85,WNW,286,0.0,0.0,92,0.00,,,0.00,WeatherCatV1.00B22,2013-02-14 10:23:00,
2013-02-14 05:28:00,32.9,30.6,29.85,WNW,286,0.0,0.0,91,0.00,,,0.00,WeatherCatV1.00B22,2013-02-14 10:28:00,
2013-02-14 05:33:00,32.8,30.7,29.85,WNW,286,1.0,2.0,92,0.00,,,0.00,WeatherCatV1.00B22,2013-02-14 10:33:00,
2013-02-14 05:38:00,32.8,30.7,29.85,WNW,286,0.0,1.0,92,0.00,,,0.00,WeatherCatV1.00B22,2013-02-14 10:38:00,
2013-02-14 05:43:00,32.7,30.6,29.85,WNW,286,0.0,1.0,92,0.00,,,0.00,WeatherCatV1.00B22,2013-02-14 10:43:00,
2013-02-14 05:48:00,32.6,30.5,29.86,WNW,286,0.0,0.0,92,0.00,,,0.00,WeatherCatV1.00B22,2013-02-14 10:48:00,
2013-02-14 05:53:00,32.5,30.4,29.86,WNW,286,0.0,0.0,92,0.00,,,0.00,WeatherCatV1.00B22,2013-02-14 10:53:00,
2013-02-14 05:58:00,32.4,30.3,29.86,WNW,286,1.0,2.0,92,0.00,,,0.00,WeatherCatV1.00B22,2013-02-14 10:58:00,
2013-02-14 06:03:00,32.4,30.6,29.86,WNW,286,0.0,0.0,93,0.00,,,0.00,WeatherCatV1.00B22,2013-02-14 11:03:00,
2013-02-14 06:08:00,32.4,30.3,29.87,WNW,286,0.0,1.0,92,0.00,,,0.00,WeatherCatV1.00B22,2013-02-14 11:08:00,
2013-02-14 06:13:00,32.3,30.2,29.86,WNW,286,0.0,0.0,92,0.00,,,0.00,WeatherCatV1.00B22,2013-02-14 11:13:00,
2013-02-14 06:18:00,32.3,30.2,29.87,WNW,286,0.0,0.0,92,0.00,,,0.00,WeatherCatV1.00B22,2013-02-14 11:18:00,
2013-02-14 06:23:00,32.1,30.3,29.88,WNW,286,0.0,0.0,93,0.00,,,0.00,WeatherCatV1.00B22,2013-02-14 11:23:00,
2013-02-14 06:28:00,32.0,30.2,29.87,WNW,286,0.0,0.0,93,0.00,,,0.00,WeatherCatV1.00B22,2013-02-14 11:28:00,
2013-02-14 06:33:00,32.0,30.2,29.88,WNW,286,0.0,0.0,93,0.00,,,0.00,WeatherCatV1.00B22,2013-02-14 11:33:00,
2013-02-14 06:38:00,31.9,30.1,29.88,WNW,286,0.0,1.0,93,0.00,,,0.00,WeatherCatV1.00B22,2013-02-14 11:38:00,
2013-02-14 06:43:00,31.8,30.0,29.89,WNW,286,0.0,0.0,93,0.00,,,0.00,WeatherCatV1.00B22,2013-02-14 11:43:00,
2013-02-14 06:48:00,31.7,29.9,29.90,WNW,286,0.0,0.0,93,0.00,,,0.00,WeatherCatV1.00B22,2013-02-14 11:48:00,
2013-02-14 06:53:00,31.7,29.9,29.90,WNW,286,0.0,1.0,93,0.00,,,0.00,WeatherCatV1.00B22,2013-02-14 11:53:00,
2013-02-14 06:58:00,31.7,29.9,29.90,WNW,286,0.0,0.0,93,0.00,,,0.00,WeatherCatV1.00B22,2013-02-14 11:58:00,
2013-02-14 07:03:00,31.8,30.3,29.90,WNW,286,0.0,0.0,94,0.00,,,0.00,WeatherCatV1.00B22,2013-02-14 12:03:00,
2013-02-14 07:08:00,31.9,30.4,29.90,WNW,286,0.0,0.0,94,0.00,,,0.00,WeatherCatV1.00B22,2013-02-14 12:08:00,
2013-02-14 07:13:00,31.9,30.4,29.90,WNW,286,0.0,0.0,94,0.00,,,0.00,WeatherCatV1.00B22,2013-02-14 12:13:00,
2013-02-14 07:18:00,31.9,30.4,29.90,WNW,286,0.0,0.0,94,0.00,,,0.00,WeatherCatV1.00B22,2013-02-14 12:18:00,
2013-02-14 07:23:00,31.9,30.4,29.91,WNW,286,1.0,2.0,94,0.00,,,0.00,WeatherCatV1.00B22,2013-02-14 12:23:00,
2013-02-14 07:28:00,32.0,30.5,29.92,WNW,286,1.0,2.0,94,0.00,,,0.00,WeatherCatV1.00B22,2013-02-14 12:28:00,
2013-02-14 07:33:00,32.0,30.5,29.92,WSW,251,3.0,3.0,94,0.00,,,0.00,WeatherCatV1.00B22,2013-02-14 12:33:00,
2013-02-14 07:38:00,32.0,30.5,29.92,West,259,2.0,3.0,94,0.00,,,0.00,WeatherCatV1.00B22,2013-02-14 12:38:00,
2013-02-14 07:43:00,32.1,30.6,29.92,West,259,0.0,0.0,94,0.00,,,0.00,WeatherCatV1.00B22,2013-02-14 12:43:00,
2013-02-14 07:48:00,32.2,30.7,29.93,West,259,0.0,0.0,94,0.00,,,0.00,WeatherCatV1.00B22,2013-02-14 12:48:00,
2013-02-14 07:53:00,32.3,30.8,29.93,West,259,0.0,0.0,94,0.00,,,0.00,WeatherCatV1.00B22,2013-02-14 12:53:00,
2013-02-14 07:58:00,32.5,31.2,29.93,West,259,0.0,0.0,95,0.00,,,0.00,WeatherCatV1.00B22,2013-02-14 12:58:00,
2013-02-14 08:03:00,32.6,31.3,29.93,West,259,0.0,0.0,95,0.00,,,0.00,WeatherCatV1.00B22,2013-02-14 13:03:00,
2013-02-14 08:08:00,32.8,31.5,29.93,West,259,0.0,0.0,95,0.00,,,0.00,WeatherCatV1.00B22,2013-02-14 13:08:00,
2013-02-14 08:13:00,33.0,31.7,29.93,West,259,0.0,0.0,95,0.00,,,0.00,WeatherCatV1.00B22,2013-02-14 13:13:00,
2013-02-14 08:18:00,33.2,31.9,29.95,West,259,0.0,0.0,95,0.00,,,0.00,WeatherCatV1.00B22,2013-02-14 13:18:00,
2013-02-14 08:23:00,33.4,32.1,29.95,West,259,0.0,0.0,95,0.00,,,0.00,WeatherCatV1.00B22,2013-02-14 13:23:00,
2013-02-14 08:28:00,33.6,32.3,29.95,West,259,0.0,1.0,95,0.00,,,0.00,WeatherCatV1.00B22,2013-02-14 13:28:00,
2013-02-14 08:33:00,33.8,32.3,29.94,WNW,290,1.0,1.0,94,0.00,,,0.00,WeatherCatV1.00B22,2013-02-14 13:33:00,
2013-02-14 08:38:00,34.1,32.6,29.94,WNW,297,0.0,2.0,94,0.00,,,0.00,WeatherCatV1.00B22,2013-02-14 13:38:00,
2013-02-14 08:43:00,34.4,32.9,29.94,WNW,297,0.0,1.0,94,0.00,,,0.00,WeatherCatV1.00B22,2013-02-14 13:43:00,
2013-02-14 08:48:00,34.7,33.2,29.94,WNW,299,1.0,1.0,94,0.00,,,0.00,WeatherCatV1.00B22,2013-02-14 13:48:00,
2013-02-14 08:53:00,35.1,33.3,29.95,WNW,295,0.0,2.0,93,0.00,,,0.00,WeatherCatV1.00B22,2013-02-14 13:53:00,
2013-02-14 08:58:00,35.5,33.4,29.94,WNW,300,1.0,3.0,92,0.00,,,0.00,WeatherCatV1.00B22,2013-02-14 13:58:00,
2013-02-14 09:03:00,36.0,33.6,29.94,NNW,328,0.0,3.0,91,0.00,,,0.00,WeatherCatV1.00B22,2013-02-14 14:03:00,
2013-02-14 09:08:00,36.5,33.9,29.95,West,281,1.0,2.0,90,0.00,,,0.00,WeatherCatV1.00B22,2013-02-14 14:08:00,
2013-02-14 09:13:00,36.8,33.6,29.95,NNW,333,1.0,2.0,88,0.00,,,0.00,WeatherCatV1.00B22,2013-02-14 14:13:00,
2013-02-14 09:18:00,37.1,33.9,29.95,NW,323,1.0,3.0,88,0.00,,,0.00,WeatherCatV1.00B22,2013-02-14 14:18:00,
2013-02-14 09:23:00,37.3,33.8,29.95,NW,320,1.0,3.0,87,0.00,,,0.00,WeatherCatV1.00B22,2013-02-14 14:23:00,
2013-02-14 09:28:00,37.5,34.0,29.95,WNW,302,1.0,2.0,87,0.00,,,0.00,WeatherCatV1.00B22,2013-02-14 14:28:00,
2013-02-14 09:33:00,37.8,34.3,29.94,North,5,1.0,3.0,87,0.00,,,0.00,WeatherCatV1.00B22,2013-02-14 14:33:00,
2013-02-14 09:38:00,38.2,34.1,29.94,NNW,337,1.0,3.0,85,0.00,,,0.00,WeatherCatV1.00B22,2013-02-14 14:38:00,
2013-02-14 09:43:00,38.7,34.0,29.94,NNW,335,5.0,5.0,83,0.00,,,0.00,WeatherCatV1.00B22,2013-02-14 14:43:00,
2013-02-14 09:48:00,39.0,33.7,29.94,NNW,339,0.0,4.0,81,0.00,,,0.00,WeatherCatV1.00B22,2013-02-14 14:48:00,
2013-02-14 09:53:00,39.5,34.2,29.93,NNE,23,1.0,2.0,81,0.00,,,0.00,WeatherCatV1.00B22,2013-02-14 14:53:00,
2013-02-14 09:58:00,40.0,34.3,29.93,West,272,4.0,5.0,80,0.00,,,0.00,WeatherCatV1.00B22,2013-02-14 14:58:00,
2013-02-14 10:03:00,40.7,35.0,29.93,NW,321,2.0,3.0,80,0.00,,,0.00,WeatherCatV1.00B22,2013-02-14 15:03:00,
2013-02-14 10:08:00,41.3,35.0,29.94,NNE,21,0.0,0.0,78,0.00,,,0.00,WeatherCatV1.00B22,2013-02-14 15:08:00,
2013-02-14 10:13:00,41.8,35.5,29.95,ESE,109,2.0,2.0,78,0.00,,,0.00,WeatherCatV1.00B22,2013-02-14 15:13:00,
2013-02-14 10:18:00,42.1,35.4,29.95,ESE,113,1.0,2.0,77,0.00,,,0.00,WeatherCatV1.00B22,2013-02-14 15:18:00,
2013-02-14 10:23:00,42.2,34.9,29.94,SE,132,0.0,3.0,75,0.00,,,0.00,WeatherCatV1.00B22,2013-02-14 15:23:00,
2013-02-14 10:28:00,42.4,35.4,29.95,SSE,155,3.0,3.0,76,0.00,,,0.00,WeatherCatV1.00B22,2013-02-14 15:28:00,
2013-02-14 10:33:00,42.7,35.7,29.95,SSE,159,1.0,2.0,76,0.00,,,0.00,WeatherCatV1.00B22,2013-02-14 15:33:00,
2013-02-14 10:38:00,43.2,36.2,29.95,SSE,168,1.0,1.0,76,0.00,,,0.00,WeatherCatV1.00B22,2013-02-14 15:38:00,
2013-02-14 10:43:00,43.6,35.5,29.95,SE,144,0.0,1.0,73,0.00,,,0.00,WeatherCatV1.00B22,2013-02-14 15:43:00,
2013-02-14 10:48:00,43.7,36.0,29.95,ESE,120,1.0,2.0,74,0.00,,,0.00,WeatherCatV1.00B22,2013-02-14 15:48:00,
2013-02-14 10:53:00,43.7,36.6,29.95,SSE,150,1.0,3.0,76,0.00,,,0.00,WeatherCatV1.00B22,2013-02-14 15:53:00,
2013-02-14 10:58:00,44.0,36.3,29.95,South,181,2.0,2.0,74,0.00,,,0.00,WeatherCatV1.00B22,2013-02-14 15:58:00,
2013-02-14 11:03:00,44.4,36.6,29.96,South,169,1.0,2.0,74,0.00,,,0.00,WeatherCatV1.00B22,2013-02-14 16:03:00,
2013-02-14 11:08:00,44.8,36.7,29.96,SSE,162,2.0,3.0,73,0.00,,,0.00,WeatherCatV1.00B22,2013-02-14 16:08:00,
2013-02-14 11:13:00,45.1,36.6,29.96,SSE,156,2.0,3.0,72,0.00,,,0.00,WeatherCatV1.00B22,2013-02-14 16:13:00,
2013-02-14 11:18:00,45.4,36.6,29.96,SSE,157,0.0,3.0,71,0.00,,,0.00,WeatherCatV1.00B22,2013-02-14 16:18:00,
2013-02-14 11:23:00,45.6,37.1,29.96,SSE,160,1.0,2.0,72,0.00,,,0.00,WeatherCatV1.00B22,2013-02-14 16:23:00,
2013-02-14 11:28:00,45.8,36.9,29.96,SSE,165,2.0,4.0,71,0.00,,,0.00,WeatherCatV1.00B22,2013-02-14 16:28:00,
2013-02-14 11:33:00,46.1,36.5,29.96,SSE,150,1.0,2.0,69,0.00,,,0.00,WeatherCatV1.00B22,2013-02-14 16:33:00,
2013-02-14 11:38:00,46.5,36.9,29.96,SSW,197,2.0,3.0,69,0.00,,,0.00,WeatherCatV1.00B22,2013-02-14 16:38:00,
2013-02-14 11:43:00,46.7,34.8,29.96,SSW,198,1.0,2.0,63,0.00,,,0.00,WeatherCatV1.00B22,2013-02-14 16:43:00,
2013-02-14 11:48:00,46.8,36.0,29.96,SSW,193,1.0,3.0,66,0.00,,,0.00,WeatherCatV1.00B22,2013-02-14 16:48:00,
2013-02-14 11:53:00,46.7,36.0,29.96,SE,144,0.0,2.0,66,0.00,,,0.00,WeatherCatV1.00B22,2013-02-14 16:53:00,
2013-02-14 11:58:00,46.7,36.7,29.96,West,261,0.0,5.0,68,0.00,,,0.00,WeatherCatV1.00B22,2013-02-14 16:58:00,
2013-02-14 12:03:00,46.8,34.9,29.96,West,265,3.0,3.0,63,0.00,,,0.00,WeatherCatV1.00B22,2013-02-14 17:03:00,
2013-02-14 12:08:00,46.8,35.3,29.95,SSW,207,0.0,1.0,64,0.00,,,0.00,WeatherCatV1.00B22,2013-02-14 17:08:00,
2013-02-14 12:13:00,47.0,34.3,29.95,West,279,0.0,4.0,61,0.00,,,0.00,WeatherCatV1.00B22,2013-02-14 17:13:00,
2013-02-14 12:18:00,47.2,34.9,29.94,WSW,240,0.0,5.0,62,0.00,,,0.00,WeatherCatV1.00B22,2013-02-14 17:18:00,
2013-02-14 12:23:00,47.5,35.5,29.94,NNE,32,1.0,2.0,63,0.00,,,0.00,WeatherCatV1.00B22,2013-02-14 17:23:00,
2013-02-14 12:28:00,47.7,36.5,29.94,ESE,106,2.0,2.0,65,0.00,,,0.00,WeatherCatV1.00B22,2013-02-14 17:28:00,
2013-02-14 12:33:00,48.3,36.3,29.94,SSE,157,0.0,1.0,63,0.00,,,0.00,WeatherCatV1.00B22,2013-02-14 17:33:00,
2013-02-14 12:38:00,48.9,36.5,29.94,ESE,109,2.0,3.0,62,0.00,,,0.00,WeatherCatV1.00B22,2013-02-14 17:38:00,
2013-02-14 12:43:00,49.5,37.0,29.94,SSE,161,1.0,2.0,62,0.00,,,0.00,WeatherCatV1.00B22,2013-02-14 17:43:00,
2013-02-14 12:48:00,50.0,37.9,29.94,South,189,3.0,3.0,63,0.00,,,0.00,WeatherCatV1.00B22,2013-02-14 17:48:00,
2013-02-14 12:53:00,50.3,37.0,29.93,ESE,117,3.0,4.0,60,0.00,,,0.00,WeatherCatV1.00B22,2013-02-14 17:53:00,
2013-02-14 12:58:00,50.4,37.0,29.93,ESE,114,1.0,3.0,60,0.00,,,0.00,WeatherCatV1.00B22,2013-02-14 17:58:00,
2013-02-14 13:03:00,50.4,37.0,29.93,SE,146,3.0,3.0,60,0.00,,,0.00,WeatherCatV1.00B22,2013-02-14 18:03:00,
2013-02-14 13:08:00,50.6,37.2,29.92,SE,135,2.0,3.0,60,0.00,,,0.00,WeatherCatV1.00B22,2013-02-14 18:08:00,
2013-02-14 13:13:00,50.7,35.6,29.92,SE,129,2.0,2.0,56,0.00,,,0.00,WeatherCatV1.00B22,2013-02-14 18:13:00,
2013-02-14 13:18:00,50.8,37.8,29.92,SSE,168,2.0,3.0,61,0.00,,,0.00,WeatherCatV1.00B22,2013-02-14 18:18:00,
2013-02-14 13:23:00,51.4,37.6,29.92,South,180,2.0,2.0,59,0.00,,,0.00,WeatherCatV1.00B22,2013-02-14 18:23:00,
2013-02-14 13:28:00,52.0,37.2,29.92,SW,222,1.0,3.0,57,0.00,,,0.00,WeatherCatV1.00B22,2013-02-14 18:28:00,
2013-02-14 13:33:00,52.2,36.1,29.92,SSE,166,1.0,3.0,54,0.00,,,0.00,WeatherCatV1.00B22,2013-02-14 18:33:00,
2013-02-14 13:38:00,52.3,34.7,29.92,South,182,0.0,2.0,51,0.00,,,0.00,WeatherCatV1.00B22,2013-02-14 18:38:00,
2013-02-14 13:43:00,52.1,35.0,29.92,West,265,2.0,4.0,52,0.00,,,0.00,WeatherCatV1.00B22,2013-02-14 18:43:00,
2013-02-14 13:48:00,51.7,34.6,29.92,WSW,246,0.0,1.0,52,0.00,,,0.00,WeatherCatV1.00B22,2013-02-14 18:48:00,
2013-02-14 13:53:00,51.7,35.1,29.92,WSW,244,3.0,5.0,53,0.00,,,0.00,WeatherCatV1.00B22,2013-02-14 18:53:00,
2013-02-14 13:58:00,51.6,35.5,29.91,WSW,253,3.0,4.0,54,0.00,,,0.00,WeatherCatV1.00B22,2013-02-14 18:58:00,
2013-02-14 14:03:00,51.6,36.0,29.91,South,183,2.0,4.0,55,0.00,,,0.00,WeatherCatV1.00B22,2013-02-14 19:03:00,
2013-02-14 14:08:00,51.7,37.0,29.91,SW,234,2.0,3.0,57,0.00,,,0.00,WeatherCatV1.00B22,2013-02-14 19:08:00,
2013-02-14 14:13:00,51.8,36.6,29.91,WSW,239,6.0,6.0,56,0.00,,,0.00,WeatherCatV1.00B22,2013-02-14 19:13:00,
2013-02-14 14:18:00,51.7,37.0,29.91,SSW,209,3.0,6.0,57,0.00,,,0.00,WeatherCatV1.00B22,2013-02-14 19:18:00,
2013-02-14 14:23:00,51.6,37.3,29.91,SSW,197,3.0,4.0,58,0.00,,,0.00,WeatherCatV1.00B22,2013-02-14 19:23:00,
2013-02-14 14:28:00,51.7,36.1,29.91,West,279,2.0,4.0,55,0.00,,,0.00,WeatherCatV1.00B22,2013-02-14 19:28:00,
2013-02-14 14:33:00,51.7,36.5,29.91,WSW,253,1.0,3.0,56,0.00,,,0.00,WeatherCatV1.00B22,2013-02-14 19:33:00,
2013-02-14 14:38:00,51.8,36.6,29.91,WNW,290,2.0,3.0,56,0.00,,,0.00,WeatherCatV1.00B22,2013-02-14 19:38:00,
2013-02-14 14:43:00,51.9,36.7,29.91,South,178,4.0,4.0,56,0.00,,,0.00,WeatherCatV1.00B22,2013-02-14 19:43:00,
2013-02-14 14:48:00,51.8,36.6,29.91,West,262,3.0,3.0,56,0.00,,,0.00,WeatherCatV1.00B22,2013-02-14 19:48:00,
2013-02-14 14:53:00,51.9,36.2,29.91,WSW,239,3.0,4.0,55,0.00,,,0.00,WeatherCatV1.00B22,2013-02-14 19:53:00,
2013-02-14 14:58:00,51.8,36.2,29.90,SSW,211,0.0,2.0,55,0.00,,,0.00,WeatherCatV1.00B22,2013-02-14 19:58:00,
2013-02-14 15:03:00,51.7,36.5,29.90,SW,231,0.0,2.0,56,0.00,,,0.00,WeatherCatV1.00B22,2013-02-14 20:03:00,
2013-02-14 15:08:00,51.6,36.4,29.90,West,280,0.0,2.0,56,0.00,,,0.00,WeatherCatV1.00B22,2013-02-14 20:08:00,
2013-02-14 15:13:00,51.6,36.4,29.90,NW,325,1.0,1.0,56,0.00,,,0.00,WeatherCatV1.00B22,2013-02-14 20:13:00,
2013-02-14 15:18:00,51.6,36.0,29.90,South,188,1.0,2.0,55,0.00,,,0.00,WeatherCatV1.00B22,2013-02-14 20:18:00,
2013-02-14 15:23:00,51.8,37.1,29.89,WSW,242,1.0,2.0,57,0.00,,,0.00,WeatherCatV1.00B22,2013-02-14 20:23:00,
2013-02-14 15:28:00,52.0,36.8,29.89,SSW,209,0.0,2.0,56,0.00,,,0.00,WeatherCatV1.00B22,2013-02-14 20:28:00,
2013-02-14 15:33:00,52.3,37.5,29.90,West,281,0.0,4.0,57,0.00,,,0.00,WeatherCatV1.00B22,2013-02-14 20:33:00,
2013-02-14 15:38:00,52.5,36.3,29.89,SE,146,0.0,2.0,54,0.00,,,0.00,WeatherCatV1.00B22,2013-02-14 20:38:00,
2013-02-14 15:43:00,52.7,36.5,29.89,South,176,1.0,4.0,54,0.00,,,0.00,WeatherCatV1.00B22,2013-02-14 20:43:00,
2013-02-14 15:48:00,52.9,36.2,29.89,South,169,3.0,4.0,53,0.00,,,0.00,WeatherCatV1.00B22,2013-02-14 20:48:00,
2013-02-14 15:53:00,53.1,36.4,29.89,SSE,167,0.0,2.0,53,0.00,,,0.00,WeatherCatV1.00B22,2013-02-14 20:53:00,
2013-02-14 15:58:00,53.2,36.5,29.89,WSW,244,2.0,3.0,53,0.00,,,0.00,WeatherCatV1.00B22,2013-02-14 20:58:00,
2013-02-14 16:03:00,53.3,35.6,29.88,WNW,292,0.0,0.0,51,0.00,,,0.00,WeatherCatV1.00B22,2013-02-14 21:03:00,
2013-02-14 16:08:00,53.5,35.8,29.88,SW,226,0.0,5.0,51,0.00,,,0.00,WeatherCatV1.00B22,2013-02-14 21:08:00,
2013-02-14 16:13:00,53.7,35.0,29.88,North,355,1.0,4.0,49,0.00,,,0.00,WeatherCatV1.00B22,2013-02-14 21:13:00,
2013-02-14 16:18:00,53.8,34.0,29.88,SW,232,1.0,3.0,47,0.00,,,0.00,WeatherCatV1.00B22,2013-02-14 21:18:00,
2013-02-14 16:23:00,53.9,35.2,29.88,NNW,331,0.0,1.0,49,0.00,,,0.00,WeatherCatV1.00B22,2013-02-14 21:23:00,
2013-02-14 16:28:00,54.0,35.3,29.88,WSW,245,3.0,5.0,49,0.00,,,0.00,WeatherCatV1.00B22,2013-02-14 21:28:00,
2013-02-14 16:33:00,54.1,35.4,29.88,WSW,243,3.0,3.0,49,0.00,,,0.00,WeatherCatV1.00B22,2013-02-14 21:33:00,
2013-02-14 16:38:00,54.1,34.8,29.88,West,277,0.0,3.0,48,0.00,,,0.00,WeatherCatV1.00B22,2013-02-14 21:38:00,
2013-02-14 16:43:00,54.1,34.8,29.88,WSW,251,2.0,3.0,48,0.00,,,0.00,WeatherCatV1.00B22,2013-02-14 21:43:00,
2013-02-14 16:48:00,54.1,35.9,29.88,WNW,299,2.0,4.0,50,0.00,,,0.00,WeatherCatV1.00B22,2013-02-14 21:48:00,
2013-02-14 16:53:00,54.0,35.3,29.88,WSW,257,1.0,4.0,49,0.00,,,0.00,WeatherCatV1.00B22,2013-02-14 21:53:00,
2013-02-14 16:58:00,53.9,34.1,29.88,NW,325,0.0,1.0,47,0.00,,,0.00,WeatherCatV1.00B22,2013-02-14 21:58:00,
2013-02-14 17:03:00,53.8,34.6,29.88,SW,227,0.0,1.0,48,0.00,,,0.00,WeatherCatV1.00B22,2013-02-14 22:03:00,
2013-02-14 17:08:00,53.7,34.5,29.88,West,263,3.0,6.0,48,0.00,,,0.00,WeatherCatV1.00B22,2013-02-14 22:08:00,
2013-02-14 17:13:00,53.6,34.9,29.88,NNW,344,1.0,2.0,49,0.00,,,0.00,WeatherCatV1.00B22,2013-02-14 22:13:00,
2013-02-14 17:18:00,53.4,35.2,29.88,SW,231,6.0,7.0,50,0.00,,,0.00,WeatherCatV1.00B22,2013-02-14 22:18:00,
2013-02-14 17:23:00,53.3,34.6,29.88,WNW,283,3.0,3.0,49,0.00,,,0.00,WeatherCatV1.00B22,2013-02-14 22:23:00,
2013-02-14 17:28:00,53.2,35.5,29.88,WSW,257,1.0,2.0,51,0.00,,,0.00,WeatherCatV1.00B22,2013-02-14 22:28:00,
2013-02-14 17:33:00,53.0,35.4,29.88,West,263,1.0,3.0,51,0.00,,,0.00,WeatherCatV1.00B22,2013-02-14 22:33:00,
2013-02-14 17:38:00,52.8,35.2,29.88,NNW,329,0.0,0.0,51,0.00,,,0.00,WeatherCatV1.00B22,2013-02-14 22:38:00,
2013-02-14 17:43:00,52.6,36.0,29.88,WSW,248,2.0,2.0,53,0.00,,,0.00,WeatherCatV1.00B22,2013-02-14 22:43:00,
2013-02-14 17:48:00,52.4,35.3,29.88,NW,311,0.0,2.0,52,0.00,,,0.00,WeatherCatV1.00B22,2013-02-14 22:48:00,
2013-02-14 17:53:00,52.2,35.6,29.88,West,279,0.0,3.0,53,0.00,,,0.00,WeatherCatV1.00B22,2013-02-14 22:53:00,
2013-02-14 17:58:00,51.9,35.8,29.88,WSW,240,3.0,3.0,54,0.00,,,0.00,WeatherCatV1.00B22,2013-02-14 22:58:00,
2013-02-14 18:03:00,51.7,36.1,29.89,WSW,258,1.0,3.0,55,0.00,,,0.00,WeatherCatV1.00B22,2013-02-14 23:03:00,
2013-02-14 18:08:00,51.4,35.3,29.89,NNW,328,0.0,0.0,54,0.00,,,0.00,WeatherCatV1.00B22,2013-02-14 23:08:00,
2013-02-14 18:13:00,51.2,35.6,29.89,SW,236,2.0,3.0,55,0.00,,,0.00,WeatherCatV1.00B22,2013-02-14 23:13:00,
2013-02-14 18:18:00,50.9,35.3,29.89,West,274,0.0,0.0,55,0.00,,,0.00,WeatherCatV1.00B22,2013-02-14 23:18:00,
2013-02-14 18:23:00,50.7,35.1,29.88,West,274,0.0,0.0,55,0.00,,,0.00,WeatherCatV1.00B22,2013-02-14 23:23:00,
2013-02-14 18:28:00,50.5,35.4,29.88,West,274,0.0,0.0,56,0.00,,,0.00,WeatherCatV1.00B22,2013-02-14 23:28:00,
2013-02-14 18:33:00,50.2,36.4,29.89,West,274,0.0,0.0,59,0.00,,,0.00,WeatherCatV1.00B22,2013-02-14 23:33:00,
2013-02-14 18:38:00,49.9,35.7,29.88,West,274,1.0,1.0,58,0.00,,,0.00,WeatherCatV1.00B22,2013-02-14 23:38:00,
2013-02-14 18:43:00,49.6,35.0,29.89,NW,311,0.0,0.0,57,0.00,,,0.00,WeatherCatV1.00B22,2013-02-14 23:43:00,
2013-02-14 18:48:00,49.4,35.2,29.89,NW,311,0.0,0.0,58,0.00,,,0.00,WeatherCatV1.00B22,2013-02-14 23:48:00,
2013-02-14 18:53:00,49.1,35.0,29.90,NW,311,0.0,0.0,58,0.00,,,0.00,WeatherCatV1.00B22,2013-02-14 23:53:00,
2013-02-14 18:58:00,48.9,34.8,29.90,NW,311,0.0,0.0,58,0.00,,,0.00,WeatherCatV1.00B22,2013-02-14 23:58:00,
2013-02-14 19:03:00,48.7,34.6,29.90,NW,311,0.0,0.0,58,0.00,,,0.00,WeatherCatV1.00B22,2013-02-15 00:03:00,
2013-02-14 19:08:00,48.4,34.7,29.90,NW,311,0.0,0.0,59,0.00,,,0.00,WeatherCatV1.00B22,2013-02-15 00:08:00,
2013-02-14 19:13:00,48.1,34.5,29.90,NW,311,0.0,0.0,59,0.00,,,0.00,WeatherCatV1.00B22,2013-02-15 00:13:00,
2013-02-14 19:18:00,47.8,35.0,29.90,NW,311,0.0,1.0,61,0.00,,,0.00,WeatherCatV1.00B22,2013-02-15 00:18:00,
2013-02-14 19:23:00,47.6,35.6,29.90,NW,311,0.0,0.0,63,0.00,,,0.00,WeatherCatV1.00B22,2013-02-15 00:23:00,
2013-02-14 19:28:00,47.3,34.9,29.90,NW,311,0.0,0.0,62,0.00,,,0.00,WeatherCatV1.00B22,2013-02-15 00:28:00,
2013-02-14 19:33:00,47.0,35.1,29.90,NW,311,0.0,0.0,63,0.00,,,0.00,WeatherCatV1.00B22,2013-02-15 00:33:00,
2013-02-14 19:38:00,46.7,34.8,29.90,NW,311,0.0,0.0,63,0.00,,,0.00,WeatherCatV1.00B22,2013-02-15 00:38:00,
2013-02-14 19:43:00,46.4,34.9,29.90,NW,311,0.0,1.0,64,0.00,,,0.00,WeatherCatV1.00B22,2013-02-15 00:43:00,
2013-02-14 19:48:00,46.1,34.6,29.90,NW,311,1.0,1.0,64,0.00,,,0.00,WeatherCatV1.00B22,2013-02-15 00:48:00,
2013-02-14 19:53:00,46.0,34.5,29.90,WNW,290,1.0,4.0,64,0.00,,,0.00,WeatherCatV1.00B22,2013-02-15 00:53:00,
2013-02-14 19:58:00,45.9,34.4,29.90,WNW,290,0.0,1.0,64,0.00,,,0.00,WeatherCatV1.00B22,2013-02-15 00:58:00,
2013-02-14 20:03:00,45.8,34.3,29.91,WNW,290,0.0,1.0,64,0.00,,,0.00,WeatherCatV1.00B22,2013-02-15 01:03:00,
2013-02-14 20:08:00,45.8,34.7,29.91,WNW,290,0.0,0.0,65,0.00,,,0.00,WeatherCatV1.00B22,2013-02-15 01:08:00,
2013-02-14 20:13:00,45.7,35.0,29.91,WNW,290,0.0,0.0,66,0.00,,,0.00,WeatherCatV1.00B22,2013-02-15 01:13:00,
2013-02-14 20:18:00,45.5,34.8,29.91,WNW,295,0.0,0.0,66,0.00,,,0.00,WeatherCatV1.00B22,2013-02-15 01:18:00,
2013-02-14 20:23:00,45.4,35.1,29.91,WNW,295,0.0,0.0,67,0.00,,,0.00,WeatherCatV1.00B22,2013-02-15 01:23:00,
2013-02-14 20:28:00,45.2,35.3,29.92,WNW,295,0.0,0.0,68,0.00,,,0.00,WeatherCatV1.00B22,2013-02-15 01:28:00,
2013-02-14 20:33:00,45.0,34.7,29.92,WNW,295,0.0,0.0,67,0.00,,,0.00,WeatherCatV1.00B22,2013-02-15 01:33:00,
2013-02-14 20:38:00,44.9,35.0,29.92,WNW,295,0.0,0.0,68,0.00,,,0.00,WeatherCatV1.00B22,2013-02-15 01:38:00,
2013-02-14 20:43:00,44.9,35.4,29.92,WNW,295,0.0,0.0,69,0.00,,,0.00,WeatherCatV1.00B22,2013-02-15 01:43:00,
2013-02-14 20:48:00,44.8,35.3,29.93,WNW,295,0.0,0.0,69,0.00,,,0.00,WeatherCatV1.00B22,2013-02-15 01:48:00,
2013-02-14 20:53:00,44.7,35.2,29.93,WNW,295,0.0,0.0,69,0.00,,,0.00,WeatherCatV1.00B22,2013-02-15 01:53:00,
2013-02-14 20:58:00,44.6,35.1,29.93,WNW,295,0.0,0.0,69,0.00,,,0.00,WeatherCatV1.00B22,2013-02-15 01:58:00,
2013-02-14 21:03:00,44.4,35.6,29.93,WNW,295,0.0,0.0,71,0.00,,,0.00,WeatherCatV1.00B22,2013-02-15 02:03:00,
2013-02-14 21:08:00,44.2,35.0,29.93,WNW,295,0.0,1.0,70,0.00,,,0.00,WeatherCatV1.00B22,2013-02-15 02:08:00,
2013-02-14 21:13:00,44.0,35.2,29.93,WNW,295,1.0,1.0,71,0.00,,,0.00,WeatherCatV1.00B22,2013-02-15 02:13:00,
2013-02-14 21:18:00,43.8,35.0,29.93,WNW,298,0.0,1.0,71,0.00,,,0.00,WeatherCatV1.00B22,2013-02-15 02:18:00,
2013-02-14 21:23:00,43.8,35.0,29.93,WNW,298,0.0,0.0,71,0.00,,,0.00,WeatherCatV1.00B22,2013-02-15 02:23:00,
2013-02-14 21:28:00,43.7,34.9,29.93,NW,317,0.0,2.0,71,0.00,,,0.00,WeatherCatV1.00B22,2013-02-15 02:28:00,
2013-02-14 21:33:00,43.7,34.9,29.93,WNW,295,0.0,0.0,71,0.00,,,0.00,WeatherCatV1.00B22,2013-02-15 02:33:00,
2013-02-14 21:38:00,43.6,35.2,29.93,WNW,295,0.0,0.0,72,0.00,,,0.00,WeatherCatV1.00B22,2013-02-15 02:38:00,
2013-02-14 21:43:00,43.5,35.1,29.93,WNW,295,0.0,0.0,72,0.00,,,0.00,WeatherCatV1.00B22,2013-02-15 02:43:00,
2013-02-14 21:48:00,43.4,35.0,29.93,WNW,295,0.0,1.0,72,0.00,,,0.00,WeatherCatV1.00B22,2013-02-15 02:48:00,
2013-02-14 21:53:00,43.3,35.6,29.93,NW,313,0.0,1.0,74,0.00,,,0.00,WeatherCatV1.00B22,2013-02-15 02:53:00,
2013-02-14 21:58:00,43.1,35.4,29.93,NW,313,0.0,0.0,74,0.00,,,0.00,WeatherCatV1.00B22,2013-02-15 02:58:00,
2013-02-14 22:03:00,42.9,35.2,29.93,NW,313,0.0,0.0,74,0.00,,,0.00,WeatherCatV1.00B22,2013-02-15 03:03:00,
2013-02-14 22:08:00,42.7,35.3,29.93,NW,313,0.0,0.0,75,0.00,,,0.00,WeatherCatV1.00B22,2013-02-15 03:08:00,
2013-02-14 22:13:00,42.5,35.1,29.94,NW,313,0.0,0.0,75,0.00,,,0.00,WeatherCatV1.00B22,2013-02-15 03:13:00,
2013-02-14 22:18:00,42.4,35.7,29.94,NW,313,0.0,0.0,77,0.00,,,0.00,WeatherCatV1.00B22,2013-02-15 03:18:00,
2013-02-14 22:23:00,42.3,35.9,29.94,NW,313,0.0,0.0,78,0.00,,,0.00,WeatherCatV1.00B22,2013-02-15 03:23:00,
2013-02-14 22:28:00,42.4,36.7,29.94,NW,313,0.0,0.0,80,0.00,,,0.00,WeatherCatV1.00B22,2013-02-15 03:28:00,
2013-02-14 22:33:00,42.3,36.6,29.94,NW,313,0.0,0.0,80,0.00,,,0.00,WeatherCatV1.00B22,2013-02-15 03:33:00,
2013-02-14 22:38:00,42.2,36.2,29.94,NW,313,0.0,0.0,79,0.00,,,0.00,WeatherCatV1.00B22,2013-02-15 03:38:00,
2013-02-14 22:43:00,42.0,35.6,29.94,NW,313,0.0,0.0,78,0.00,,,0.00,WeatherCatV1.00B22,2013-02-15 03:43:00,
2013-02-14 22:48:00,41.8,35.5,29.94,NW,313,0.0,0.0,78,0.00,,,0.00,WeatherCatV1.00B22,2013-02-15 03:48:00,
2013-02-14 22:53:00,41.7,36.0,29.94,NW,313,0.0,0.0,80,0.00,,,0.00,WeatherCatV1.00B22,2013-02-15 03:53:00,
2013-02-14 22:58:00,41.5,35.8,29.95,NW,313,0.0,0.0,80,0.00,,,0.00,WeatherCatV1.00B22,2013-02-15 03:58:00,
2013-02-14 23:03:00,41.3,35.6,29.95,NW,313,0.0,0.0,80,0.00,,,0.00,WeatherCatV1.00B22,2013-02-15 04:03:00,
2013-02-14 23:08:00,41.1,35.4,29.95,NW,313,0.0,0.0,80,0.00,,,0.00,WeatherCatV1.00B22,2013-02-15 04:08:00,
2013-02-14 23:13:00,40.9,35.5,29.95,NW,313,0.0,0.0,81,0.00,,,0.00,WeatherCatV1.00B22,2013-02-15 04:13:00,
2013-02-14 23:18:00,40.7,35.6,29.95,NW,313,0.0,0.0,82,0.00,,,0.00,WeatherCatV1.00B22,2013-02-15 04:18:00,
2013-02-14 23:23:00,40.6,35.8,29.95,NW,313,0.0,0.0,83,0.00,,,0.00,WeatherCatV1.00B22,2013-02-15 04:23:00,
2013-02-14 23:28:00,40.5,36.1,29.95,NW,313,0.0,1.0,84,0.00,,,0.00,WeatherCatV1.00B22,2013-02-15 04:28:00,
2013-02-14 23:33:00,40.4,36.3,29.95,West,259,1.0,2.0,85,0.00,,,0.00,WeatherCatV1.00B22,2013-02-15 04:33:00,
2013-02-14 23:38:00,40.3,36.2,29.95,West,259,0.0,1.0,85,0.00,,,0.00,WeatherCatV1.00B22,2013-02-15 04:38:00,
2013-02-14 23:43:00,40.2,36.4,29.95,West,259,0.0,0.0,86,0.00,,,0.00,WeatherCatV1.00B22,2013-02-15 04:43:00,
2013-02-14 23:48:00,40.2,36.4,29.95,West,259,0.0,0.0,86,0.00,,,0.00,WeatherCatV1.00B22,2013-02-15 04:48:00,
2013-02-14 23:53:00,40.1,36.5,29.95,West,259,0.0,0.0,87,0.00,,,0.00,WeatherCatV1.00B22,2013-02-15 04:53:00,
2013-02-14 23:58:00,40.0,36.4,29.95,West,259,0.0,0.0,87,0.00,,,0.00,WeatherCatV1.00B22,2013-02-15 04:58:00,